Location: Bílinka
(49.3579°N, 14.3767°E)
Time: 22:15:16
(UTC+00:00)

PSLV R/B - Pass Details

Date: 30 April 2024
Orbit: 467 x 522 km, 97.7° (Epoch: 18 May)

Event Time Altitude Azimuth Distance (km) Brightness Sun altitude
Rises 19:37:36 0° 193° (SSW) 2,637 7.0 -11.7°
Reaches altitude 10° 19:39:55 10° 205° (SSW) 1,760 6.2 -11.9°
Maximum altitude 19:43:12 27° 265° (W) 1,036 5.7 -12.3°
Drops below altitude 10° 19:46:31 10° 324° (NW) 1,783 7.8 -12.7°
Sets 19:48:53 0° 337° (NNW) 2,678 8.6 -13.0°
